Weather observations for the past three days for
Hutchinson, Hutchinson Municipal Airport
Imperial (Metric)
Date Time (cdt) Wind (mph) Vis. (mi.) Weather Sky Cond. Temperature (ºF) Relative Humidity Wind Chill (°F) Heat Index (°F) Pressure Precipitation (in)
Air Dwpt 6 hour altimeter (in) sea level (mb) 1 hr 3 hr 6 hr
Max. Min.
17 04:52 N 8 10.00 Overcast OVC009 75 72 90% 74 30 1013.2
17 03:52 SE 6 10.00 Overcast BKN008 OVC042 73.9 72 94% 29.99 1013.0
17 02:52 NE 6 10.00 Fair CLR 73.9 72 94% 29.97 1012.3
17 01:52 NE 9 10.00 Fair CLR 75.9 73 91% 76 29.95 1011.4
17 00:52 NE 8 10.00 Fair CLR 77 72 91 77 85% 78 29.96 1012.0
16 23:52 NE 7 10.00 Fair CLR 79 70 74% 82 29.96 1011.9
16 22:52 NE 8 10.00 Fair CLR 81 69.1 67% 84 29.95 1011.8
16 21:52 NE 6 10.00 Fair CLR 82 71.1 69% 86 29.93 1011.1
16 20:52 E 7 10.00 Fair CLR 84 71.1 65% 89 29.9 1010.0
16 19:52 NE 10 10.00 Fair CLR 88 71.1 57% 94 29.89 1009.8
16 18:52 NE 14 10.00 A Few Clouds FEW050 91 70 96.1 90 50% 97 29.89 1009.6
16 17:52 NE 10 G 22 10.00 Fair CLR 93.9 69.1 44% 99 29.88 1009.0
16 16:52 NE 8 G 17 10.00 Fair CLR 93.9 66 40% 97 29.88 1009.1
16 15:52 Vrbl 5 10.00 Fair CLR 95 66.9 40% 99 29.89 1009.2
16 14:52 Vrbl 5 G 17 10.00 Fair CLR 93.9 66 40% 97 29.89 1009.4
16 13:52 N 9 10.00 Fair CLR 91.9 66 43% 95 29.89 1009.3
16 12:52 N 9 10.00 Fair CLR 90 70 90 73 52% 95 29.89 1009.5
16 11:52 N 12 10.00 Fair CLR 86 71.1 61% 92 29.89 1009.5
16 10:52 N 5 10.00 Fair CLR 82.9 70 65% 87 29.88 1009.2
16 09:52 NW 12 10.00 Fair CLR 78.1 69.1 74% 80 29.88 1009.2
16 08:52 E 5 10.00 A Few Clouds FEW110 75 68 79% 76 29.88 1009.1
16 07:52 E 12 10.00 Light Rain FEW070 FEW090 FEW110 73 66 79% 29.9 1009.6
16 06:52 NE 6 10.00 Fair CLR 75 64 82 75 69% 77 29.86 1008.2
16 05:52 N 8 G 20 10.00 A Few Clouds FEW032 75.9 66 72% 77 29.85 1007.7
16 04:52 SW 9 10.00 Fair CLR 81 66 61% 83 29.81 1006.3
16 03:52 SE 8 10.00 Fair CLR 80.1 66.9 64% 82 29.76 1004.7
16 02:52 S 7 10.00 Fair CLR 81 66 61% 83 29.78 1005.5
16 01:52 NE 6 10.00 Fair CLR 79 66.9 67% 81 29.79 1005.9
16 00:52 S 6 10.00 Fair CLR 82 66.9 99 81 60% 85 29.8 1006.1
15 23:52 S 6 10.00 Fair CLR 82.9 66.9 59% 86 29.8 1006.1
15 22:52 S 5 10.00 Fair CLR 84 66.9 57% 87 29.79 1005.9
15 21:52 SW 3 10.00 Fair CLR 88 66 48% 90 29.77 1005.3
15 20:52 S 8 10.00 Fair CLR 93 66 41% 96 29.75 1004.6
15 19:52 S 10 10.00 Fair CLR 98.1 66 35% 102 29.75 1004.4
15 18:52 S 14 10.00 Fair CLR 99 63 105.1 99 31% 101 29.76 1004.9
15 17:52 SW 22 G 30 10.00 Fair and Breezy CLR 104 64 27% 108 29.76 1004.8
15 16:52 SW 18 10.00 Fair CLR 105.1 64.9 27% 109 29.77 1005.2
15 15:52 S 20 G 26 10.00 Fair CLR 104 66.9 30% 110 29.79 1005.8
15 14:52 S 22 G 29 10.00 Fair and Breezy CLR 102.9 61 25% 104 29.81 1006.5
15 13:52 SW 21 G 37 10.00 Fair and Breezy CLR 102.9 61 25% 104 29.82 1006.8
15 12:52 S 18 10.00 Fair CLR 100.9 63 100.9 75.9 29% 103 29.84 1007.6
15 11:52 SW 13 G 23 10.00 Fair CLR 98.1 62.1 31% 99 29.86 1008.2
15 10:52 S 17 10.00 Fair CLR 95 66 39% 98 29.87 1008.4
15 09:52 SW 17 10.00 Fair CLR 90 66 45% 93 29.87 1008.5
15 08:52 S 14 10.00 Fair CLR 84 66.9 57% 87 29.86 1008.1
15 07:52 S 9 10.00 Fair CLR 79 66.9 67% 81 29.86 1008.3
15 06:52 S 7 10.00 Fair CLR 75 66.9 82.9 75 76% 76 29.87 1008.6
15 05:52 S 9 10.00 Fair CLR 77 66.9 71% 79 29.87 1008.6
15 04:52 S 10 10.00 Fair CLR 77 68 74% 79 29.87 1008.5
15 03:52 S 8 10.00 Fair CLR 78.1 68 71% 80 29.89 1009.1
15 02:52 S 9 10.00 Fair CLR 80.1 66.9 64% 82 29.9 1009.4
15 01:52 S 10 10.00 Fair CLR 82 66.9 60% 85 29.91 1009.9
15 00:52 S 8 10.00 Fair CLR 82 66 100 82 58% 84 29.93 1010.7
14 23:52 S 12 10.00 Fair CLR 86 66 51% 88 29.92 1010.4
14 22:52 S 10 10.00 Fair CLR 87.1 66 50% 89 29.91 1010.0
14 21:52 S 8 10.00 Fair CLR 86 64.9 49% 88 29.89 1009.4
14 20:52 S 10 10.00 Fair CLR 91.9 64 40% 94 29.88 1009.1
14 19:52 S 13 10.00 Fair CLR 96.1 62.1 32% 97 29.89 1009.3
14 18:52 S 15 10.00 Fair CLR 100 61 102 93.9 28% 101 29.89 1009.3
14 17:52 S 18 G 25 10.00 Fair CLR 100.9 63 29% 103 29.89 1009.2
14 16:52 SW 22 G 30 10.00 Fair and Breezy CLR 102 63 28% 104 29.9 1009.8
14 15:52 S 17 G 30 10.00 Fair CLR 100.9 66 32% 105 29.92 1010.2
14 14:52 S 20 G 28 10.00 Fair CLR 100 66 33% 104 29.93 1010.4
14 13:52 S 13 G 22 10.00 Fair CLR 98.1 68 38% 103 29.96 1011.6
14 12:52 S 12 G 20 10.00 Fair CLR 93.9 68 95 73.9 43% 98 29.98 1012.5
14 11:52 S 12 10.00 Fair CLR 91 69.1 49% 96 29.98 1012.5
14 10:52 S 10 10.00 Fair CLR 88 70 55% 93 30 1013.1
14 09:52 S 14 10.00 Fair CLR 84.9 70 61% 89 30 1013.2
14 08:52 S 16 10.00 Fair CLR 80.1 70 71% 83 29.99 1012.9
14 07:52 S 12 10.00 Fair CLR 77 70 79% 79 29.99 1012.9
14 06:52 S 12 10.00 Fair CLR 73.9 68 81 73.9 82% 29.99 1012.9 0.11
14 05:52 SE 6 10.00 Fair CLR 75.9 69.1 79% 77 29.99 1012.7
Date Time (cdt) Wind (mph) Vis. (mi.) Weather Sky Cond. Air Dwpt Max. Min. Relative Humidity Wind Chill (°F) Heat Index (°F) altimeter (in) sea level (mb) 1 hr 3 hr 6 hr
6 hour
Temperature (ºF) Pressure Precipitation (in)